ZHONGXING-6C

Last updated on Wed Sep 17 2025 00:02:50 GMT+0000 (Coordinated Universal Time)

1 44067U 19012A 25259.60955878 -.00000355 00000+0 00000+0 0 9997 2 44067 0.0168 344.0189 0007244 85.2395 276.4299 1.00270889 23993
UTC large
Height (km)
Speed (km/s)
/
Latitude / Longitude
Inclination (degrees)
Orbital Period (minutes)
Azimuth
Elevation
Range (km)
Doppler Factor

Next 0 passes for location: London (51.5072 / 0.1276)

Sorry there are no passes over London.